Date,TemperatureHighF,TemperatureAvgF,TemperatureLowF,DewpointHighF,DewpointAvgF,DewpointLowF,HumidityHigh,HumidityAvg,HumidityLow,PressureMaxIn,PressureMinIn,WindSpeedMaxMPH,WindSpeedAvgMPH,GustSpeedMaxMPH,PrecipitationSumIn
2013-1-2,58,56,54,29,27,26,33,33,32,29.53,29.47,6,2,6,0.00
2013-1-3,55,54,54,26,26,26,33,33,33,29.53,29.47,3,1,3,0.87
2013-1-4,52,38,37,46,16,14,82,39,39,29.68,29.56,2,0,2,1.04
2013-1-5,66,59,38,35,30,15,39,34,31,29.74,29.59,6,1,6,2.17
2013-1-9,61,52,44,43,36,24,77,57,34,29.59,29.35,4,1,4,0.00
2013-1-10,62,57,50,42,29,25,76,33,32,29.41,29.35,15,4,15,0.00
2013-1-11,52,42,39,25,18,16,39,38,34,29.53,29.38,5,2,5,2.28
2013-1-12,58,42,32,28,19,13,52,40,32,29.62,29.47,15,2,15,0.00
2013-1-13,59,47,34,30,21,14,44,36,32,29.65,29.47,6,2,6,0.00
2013-1-14,56,44,37,27,19,13,37,35,33,29.79,29.47,30,7,30,0.00
2013-1-15,44,43,43,18,18,17,35,35,35,29.82,29.79,9,5,9,0.00
2013-1-16,66,59,43,35,30,17,35,32,31,29.82,29.74,22,11,22,0.00
2013-1-17,74,66,60,40,34,30,32,30,29,29.62,29.50,28,8,28,0.00
2013-1-18,74,68,64,39,36,33,31,30,29,29.50,29.47,23,7,23,0.00
2013-1-19,75,67,57,41,35,28,33,30,29,29.62,29.47,22,7,22,0.00
2013-1-21,78,71,60,42,38,30,32,30,28,29.53,29.41,22,6,22,0.00
2013-1-25,73,59,56,54,45,35,92,61,29,29.56,29.38,11,4,11,0.21
2013-1-26,74,61,54,61,51,42,95,72,35,29.38,29.29,6,1,6,0.29
2013-1-27,72,68,61,49,46,42,63,46,37,29.35,29.29,5,2,6,0.00
2013-1-30,73,65,53,48,36,32,63,35,31,29.79,29.65,7,2,7,0.00
2013-1-31,52,47,44,34,33,32,64,58,48,29.68,29.62,2,0,2,0.00
2013-2-2,77,68,60,42,37,32,34,31,29,29.68,29.53,10,3,10,0.38
2013-2-3,76,71,66,41,39,36,34,31,29,29.59,29.53,8,2,10,0.00
2013-2-7,64,45,38,50,39,35,96,83,41,29.59,29.50,8,0,8,0.38
2013-2-8,68,65,63,41,38,36,42,37,35,29.56,29.47,6,2,6,0.00
2013-2-10,67,46,34,40,32,28,87,63,35,29.56,29.47,136,1,136,0.00
2013-2-11,58,58,57,32,31,30,36,36,36,29.50,29.50,3,2,3,0.00
2013-2-14,57,40,37,30,25,24,59,56,36,29.59,29.50,3,0,3,0.20
2013-2-15,38,38,37,25,24,24,60,59,58,29.59,29.59,3,1,3,0.00
2013-2-17,75,54,39,40,26,16,39,35,29,29.59,29.32,8,1,8,0.00
2013-2-18,71,71,71,39,38,38,31,30,30,29.35,29.32,7,3,7,0.00
2013-2-19,71,52,45,40,36,30,76,55,31,29.38,29.14,7,1,7,0.00
2013-2-20,71,47,46,38,37,36,74,68,64,29.32,29.14,4,1,4,0.04
2013-2-26,75,60,36,40,32,18,74,35,29,29.47,29.17,24,5,24,0.01
2013-3-4,74,59,42,51,41,37,93,57,32,29.53,29.41,0,0,0,0.00
2013-3-11,81,61,40,45,34,23,69,38,28,29.62,29.47,7,1,10,450.57
2013-3-29,74,55,46,57,47,43,98,78,36,29.56,29.44,8,1,8,0.00
2013-4-5,78,64,54,55,48,42,86,60,32,29.53,29.38,8,1,8,0.00
2013-4-6,54,52,51,48,47,45,85,81,75,29.44,29.41,2,0,2,0.21
2013-4-10,89,73,51,50,39,24,85,30,26,29.53,29.41,10,2,10,0.00
2013-4-11,86,86,85,48,48,47,27,27,27,29.41,29.38,5,2,5,0.00
2013-4-12,82,82,82,46,46,46,29,29,29,29.29,29.29,3,3,3,0.00
2013-4-14,86,65,54,51,50,48,89,68,27,29.38,29.23,0,0,4,0.00
2013-4-15,82,59,54,52,47,42,82,66,29,29.29,29.20,4,1,6,0.52
2013-5-3,104,85,67,58,46,34,37,27,23,29.38,29.20,17,3,17,0.05
2013-5-4,92,92,92,51,51,51,25,25,25,29.20,29.20,3,2,3,0.00
2013-5-5,92,63,58,51,42,38,61,46,25,29.32,29.17,10,2,10,0.00
2013-5-16,65,52,51,48,47,41,88,82,42,29.35,29.26,0,0,4,0.00
2013-5-26,82,67,49,50,46,42,90,51,30,29.44,29.35,0,0,0,0.00
2013-7-5,86,84,80,58,56,47,41,39,31,29.41,29.17,2,2,2,0.00
2013-7-12,92,77,60,67,58,51,98,57,31,29.32,29.14,9,2,9,0.00
2013-7-13,79,64,62,56,55,52,80,73,66,29.26,29.26,2,1,2,0.00
2013-7-14,95,71,57,61,55,51,96,64,27,29.35,29.26,8,1,8,0.00
2013-7-15,94,92,88,56,54,52,29,28,27,29.26,29.23,10,3,10,0.00
2013-7-20,91,72,56,60,55,52,93,60,28,29.26,29.12,9,2,9,0.00
2013-7-21,81,70,63,63,58,54,86,67,45,29.26,29.17,7,1,7,0.00
2013-8-4,68,68,68,58,58,58,73,73,73,29.23,29.23,0,0,0,0.00
2013-8-6,68,68,68,58,58,58,73,73,73,29.23,29.23,0,0,0,0.00
2013-8-7,57,57,57,55,55,55,91,91,91,29.23,29.23,2,2,2,0.00
2013-8-8,57,57,57,55,55,55,95,93,91,29.38,29.38,3,1,3,0.00
2013-8-9,86,69,54,63,54,50,98,65,32,29.38,29.26,8,2,8,0.00
2013-8-10,86,70,54,65,54,50,98,65,31,29.38,29.26,8,2,9,0.00
2013-8-14,80,59,58,58,57,50,98,95,36,29.26,29.23,3,0,3,0.04
2013-8-15,80,58,56,58,57,50,98,97,36,29.29,29.23,3,0,3,0.04
2013-8-17,92,74,56,62,54,49,98,55,28,29.32,29.14,8,1,8,0.00
2013-8-18,88,67,54,63,55,49,98,71,33,29.26,29.17,7,1,7,0.00
2013-8-19,89,78,58,56,54,52,88,50,30,29.26,29.17,6,2,6,0.00
2013-8-21,91,74,55,61,53,47,96,55,28,29.35,29.17,7,1,7,0.04
2013-9-1,97,83,66,63,60,48,75,50,29,29.32,29.23,6,2,6,0.00
2013-9-2,91,91,90,60,60,60,36,36,36,29.23,29.23,4,2,4,0.00
2013-9-3,100,83,66,65,58,52,88,48,26,29.29,29.17,8,1,8,0.00
2013-9-4,72,72,72,55,55,54,56,55,54,29.26,29.26,2,0,2,0.00
2013-9-9,87,70,58,65,55,50,97,63,32,29.26,29.12,9,2,9,0.00
2013-9-10,61,61,60,54,54,53,80,77,75,29.14,29.14,1,0,1,0.00
2013-9-11,85,81,60,54,53,52,80,39,34,29.35,29.14,4,2,4,0.00
2013-10-4,83,78,71,52,42,37,43,28,27,29.44,29.32,30,10,30,0.00
2013-10-5,87,84,75,48,46,40,29,27,26,29.53,29.41,30,16,30,0.00
2013-11-1,86,85,80,48,47,44,28,27,26,29.44,29.38,13,6,13,0.12